Location: Dvur Kralove nad Labem
(50.4330°N, 15.8170°E)
Time: 15:01:07
(UTC+02:00)

ISS - Pass Details

Date: 22 May 2018
Orbit: 402 x 407 km, 51.6° (Epoch: 24 May)

Event Time Altitude Azimuth Distance (km) Brightness Sun altitude
Rises 03:05:04 0° 286° (WNW) 2,320 -0.1 -13.5°
Reaches altitude 10° 03:07:12 10° 280° (W) 1,458 -1.2 -13.3°
Maximum altitude 03:10:19 43° 207° (SSW) 576 -3.6 -13.0°
Drops below altitude 10° 03:13:26 10° 134° (SE) 1,452 -1.1 -12.8°
Sets 03:15:33 0° 128° (SE) 2,308 0.0 -12.6°
